Location: El Bakhil
(32.7726°N, 5.5387°W)
Time: 10:15:11
(UTC+00:00)

Ariane Rocket - Pass Details

Date: 03 March 2021
Orbit: 759 x 771 km, 98.7° (Epoch: 15 April)

Event Time Altitude Azimuth Distance (km) Brightness Sun altitude
Exits shadow 20:22:16 39° 16° (NNE) 1,139 3.8 -26.2°
Drops below altitude 10° 20:25:37 10° 356° (N) 2,317 5.6 -26.9°
Sets 20:27:57 0° 353° (N) 3,246 6.5 -27.4°
